Location: Capelle
(50.3413°N, 1.9974°E)
Time: 22:50:02
(UTC+00:00)

Cosmos 1954 Rocket - Pass Details

Date: 12 January 2026
Orbit: 748 x 777 km, 74.0° (Epoch: 7 February)

Event Time Altitude Azimuth Distance (km) Brightness Sun altitude
Rises 16:41:10 0° 338° (NNW) 3,218 7.2 -4.7°
Reaches altitude 10° 16:43:37 10° 344° (NNW) 2,293 6.4 -5.0°
Maximum altitude 16:48:39 49° 60° (ENE) 979 4.2 -5.7°
Drops below altitude 10° 16:53:42 10° 135° (SE) 2,297 6.3 -6.5°
Sets 16:56:09 0° 141° (SE) 3,223 7.1 -6.8°
